[[{"header":{"parameterUnit":"m.s-1","parameterCategory":1,"la1":30.2991,"la2":30.254,"lo1":-89.0895,"lo2":-89.0444,"dy":0.0017,"dx":0.0017,"nx":28,"ny":28,"refTime":"2025-07-25T21:00:00:Z","depth":0,"parameterNumber":2,"parameterNumberName":"U-component_of_WINDS"},"data":[0,0,0,0,0,0,0,0,0,0,0,0,0,0,0,0,0,0,0,0,0,0,0,0,0,0,0,0,0,0,0,0,0,0,0,0,0,0,0,0,0,0,0,0,0,0,0,0,0,0,0,0,0,0,0,0,0,0,-4.3924,-4.3925,0,-4.4004,-4.4005,-4.4006,-4.4009,-4.4008,-4.4008,-4.4007,-4.4083,-4.4086,-4.4089,0,0,0,0,0,0,0,0,0,0,0,0,0,-4.3768,-4.3771,-4.3924,-4.3925,-4.3926,-4.4004,-4.4005,-4.4006,-4.401,-4.4008,-4.4007,-4.4006,-4.4082,-4.4085,-4.4089,0,0,0,0,0,0,0,0,0,0,0,0,0,-4.3841,-4.3772,-4.3923,-4.3937,-4.3939,-4.4004,-4.4005,-4.4006,-4.401,-4.4008,-4.4007,-4.4006,-4.4081,-4.4085,-4.4089,-4.4144,0,0,-4.4103,-4.4105,0,0,0,0,0,0,0,0,-4.3837,-4.3846,-4.3934,-4.3936,-4.3939,-4.3995,-4.3978,-4.4052,-4.401,-4.3983,-4.4007,-4.4005,-4.4055,-4.4061,-4.4079,-4.4148,-4.4151,-4.4103,-4.4106,-4.4108,-4.4109,0,0,0,0,0,0,0,-4.3832,-4.3843,-4.3955,-4.3935,-4.3938,-4.3937,-4.3946,-4.3992,-4.4025,-4.3985,-4.3986,-4.3995,-4.4055,-4.4075,-4.4081,-4.4152,-4.4103,-4.4107,-4.4109,-4.4111,-4.4268,-4.427,0,0,0,0,0,0,-4.3825,-4.3839,-4.3953,-4.3958,-4.3883,-4.3941,-4.3951,-4.3978,-4.4025,-4.4031,-4.3996,-4.3995,-4.4068,-4.4076,-4.4083,-4.4149,-4.4108,-4.4112,-4.4114,-4.4267,-4.4269,-4.427,0,0,0,0,0,0,-4.3821,-4.3835,-4.3949,-4.3899,-4.3913,-4.3946,-4.3976,-4.3981,-4.4,-4.4034,-4.4039,-4.401,-4.4067,-4.4077,-4.4129,-4.4152,-4.4114,-4.4118,-4.4265,-4.4267,-4.427,-4.4282,0,0,0,0,0,0,-4.3817,-4.3834,-4.3856,-4.3899,-4.3916,-4.3995,-4.3978,-4.3983,-4.4008,-4.4007,-4.4048,-4.4053,-4.4067,-4.4123,-4.4133,-4.4157,-4.4121,-4.4263,-4.4266,-4.4269,-4.428,-4.4284,-4.4289,0,0,0,0,0,-4.3811,-4.3855,-4.3857,-4.3871,-4.3945,-4.3997,-4.4006,-4.4022,-4.401,-4.4032,-4.4053,-4.4052,-4.4148,-4.4128,-4.414,-4.4166,-4.4262,-4.4265,-4.4269,-4.4278,-4.4284,-4.4289,0,0,0,0,0,0,-4.3812,-4.3861,-4.3864,-4.3923,-4.3956,-4.3997,-4.4025,-4.4028,-4.4064,-4.4061,-4.4079,-4.4088,-4.4139,-4.4158,-4.4134,-4.422,-4.4203,-4.4209,-4.4206,-4.4212,-4.4216,-4.421,-4.4125,0,0,0,0,0,-4.3819,-4.3859,-4.3899,-4.3948,-4.3964,-4.3992,-4.4015,-4.4026,-4.4059,-4.4073,-4.4098,-4.4129,-4.4167,-4.4191,-4.4227,-4.4283,-4.4291,-4.4307,-4.4311,-4.4315,-4.4319,-4.4349,-4.4356,-4.4282,-4.4282,-4.4282,0,0,-4.3834,-4.3866,-4.3889,-4.3949,-4.3975,-4.4014,-4.4003,-4.4045,-4.4074,-4.4078,-4.4129,-4.4149,-4.4185,-4.4239,-4.4264,-4.4256,-4.4342,-4.4319,-4.4322,-4.4324,-4.4353,-4.436,-4.4366,-4.4284,-4.4284,-4.4284,0,0,-4.388,-4.3909,-4.3953,-4.398,-4.4021,-4.404,-4.405,-4.4092,-4.4105,-4.4157,-4.4161,-4.4194,-4.4259,-4.4284,-4.4305,-4.4363,-4.4362,-4.4374,-4.4397,-4.4426,-4.4431,-4.4436,-4.4455,-4.4462,-4.4379,-4.4379,-4.4379,0,-4.3892,-4.3954,-4.3974,-4.4016,-4.4041,-4.405,-4.4092,-4.4117,-4.4167,-4.4184,-4.4175,-4.4256,-4.4281,-4.434,-4.4355,-4.4372,-4.4383,-4.4368,-4.4429,-4.4435,-4.444,-4.4458,-4.4465,-4.438,-4.438,-4.438,-4.438,0,-4.3966,-4.4008,-4.4038,-4.4088,-4.4117,-4.4159,-4.4184,-4.4211,-4.4219,-4.4237,-4.4289,-4.432,-4.4362,-4.4377,-4.4385,-4.4438,-4.4431,-4.4426,-4.4409,-4.4448,-4.4465,-4.4472,-4.4381,-4.4381,-4.4381,-4.438,0,0,-4.4013,-4.4075,-4.4086,-4.4108,-4.4155,-4.4187,-4.4229,-4.4273,-4.4294,-4.4329,-4.4363,-4.4418,-4.4414,-4.4438,-4.4448,-4.4474,-4.4516,-4.4465,-4.4466,-4.4472,-4.4574,-4.4576,-4.4584,-4.4517,-4.4518,-4.4519,-4.457,0,-4.4063,-4.4141,-4.416,-4.4225,-4.4263,-4.4272,-4.4309,-4.434,-4.4359,-4.4393,-4.4413,-4.4451,-4.4443,-4.4458,-4.4484,-4.4505,-4.4536,-4.4502,-4.4546,-4.4548,-4.4535,-4.4593,-4.4596,-4.4642,-4.4577,-4.4578,-4.4579,0,-4.4132,-4.417,-4.4239,-4.4281,-4.4298,-4.4331,-4.4372,-4.4405,-4.444,-4.4452,-4.448,-4.4488,-4.453,-4.4513,-4.4571,-4.4547,-4.4567,-4.458,-4.4582,-4.4585,-4.4564,-4.4596,-4.4658,-4.4664,-4.459,-4.4589,-4.4589,0,-4.4157,-4.4226,-4.4276,-4.4295,-4.4346,-4.4368,-4.439,-4.4424,-4.4449,-4.4485,-4.45,-4.454,-4.4561,-4.459,-4.4608,-4.4594,-4.4664,-4.4648,-4.4673,-4.4672,-4.4685,-4.4684,-4.4749,-4.4701,-4.4701,-4.4701,-4.4701,0,-4.421,-4.4251,-4.4288,-4.4318,-4.4365,-4.4387,-4.4431,-4.4453,-4.4484,-4.4517,-4.4527,-4.4558,-4.4581,-4.4614,-4.4629,-4.4673,-4.4683,-4.4692,-4.4695,-4.469,-4.4689,-4.4701,-4.4698,-4.4703,-4.4703,-4.4702,-4.4702,0,-4.4245,-4.4271,-4.4326,-4.437,-4.4382,-4.4414,-4.4451,-4.448,-4.45,-4.4542,-4.4553,-4.4583,-4.4623,-4.4645,-4.4695,-4.4704,-4.4754,-4.4756,-4.4742,-4.4743,-4.4766,-4.4762,-4.484,-4.485,-4.4797,-4.4798,-4.4798,0,-4.4276,-4.4308,-4.4357,-4.4381,-4.4403,-4.4442,-4.4468,-4.449,-4.4516,-4.456,-4.4583,-4.4624,-4.4658,-4.4721,-4.4747,-4.4784,-4.4786,-4.4811,-4.4792,-4.4786,-4.4784,-4.4781,-4.4784,-4.4813,-4.4814,-4.4814,-4.4815,0,-4.4328,-4.434,-4.4378,-4.442,-4.4451,-4.4485,-4.4519,-4.4537,-4.4565,-4.4594,-4.4636,-4.4662,-4.4714,-4.4754,-4.4794,-4.4814,-4.4818,-4.4821,-4.4828,-4.4822,-4.4812,-4.4816,-4.4749,-4.4818,-4.4818,-4.4818,-4.4817,-4.4817,-4.4361,-4.439,-4.4428,-4.447,-4.4498,-4.4529,-4.4559,-4.4583,-4.4619,-4.4664,-4.4675,-4.4719,-4.4753,-4.4807,-4.4829,-4.4862,-4.4857,-4.4868,-4.4871,-4.4873,-4.4872,-4.4809,-4.487,-4.487,-4.487,-4.487,-4.4869,0,-4.4412,-4.4437,-4.4476,-4.4523,-4.4556,-4.456,-4.4597,-4.4623,-4.4662,-4.4695,-4.4729,-4.4776,-4.4815,-4.4844,-4.4883,-4.4904,-4.4907,-4.4914,-4.4911,-4.4915,-4.4876,-4.4865,-4.4911,-4.4911,-4.4911,-4.4911,-4.4911,-4.4911,-4.4442,-4.4491,-4.4507,-4.4569,-4.4594,-4.4639,-4.466,-4.4688,-4.4714,-4.4767,-4.4801,-4.482,-4.4851,-4.4892,-4.4928,-4.4935,-4.4948,-4.4954,-4.4961,-4.4923,-4.4918,-4.4914,-4.4904,-4.4957,-4.4957,-4.4998,-4.4998,-4.4998]},{"header":{"parameterUnit":"m.s-1","parameterCategory":1,"la1":30.2991,"la2":30.254,"lo1":-89.0895,"lo2":-89.0444,"dy":0.0017,"dx":0.0017,"nx":28,"ny":28,"refTime":"2025-07-25T21:00:00:Z","depth":0,"parameterNumber":3,"parameterNumberName":"V-component_of_WINDS"},"data":[0,0,0,0,0,0,0,0,0,0,0,0,0,0,0,0,0,0,0,0,0,0,0,0,0,0,0,0,0,0,0,0,0,0,0,0,0,0,0,0,0,0,0,0,0,0,0,0,0,0,0,0,0,0,0,0,0,0,5.3398,5.3397,0,5.3349,5.3349,5.3348,5.3243,5.3241,5.3239,5.3237,5.3189,5.319,5.3191,0,0,0,0,0,0,0,0,0,0,0,0,0,5.3404,5.3404,5.3398,5.3397,5.3397,5.335,5.3349,5.3348,5.3244,5.3241,5.3238,5.3236,5.3189,5.319,5.3191,0,0,0,0,0,0,0,0,0,0,0,0,0,5.3383,5.3404,5.3398,5.3339,5.3333,5.335,5.3349,5.3348,5.3244,5.3241,5.3238,5.3235,5.3189,5.319,5.3191,5.3262,0,0,5.3194,5.3195,0,0,0,0,0,0,0,0,5.3384,5.3383,5.3348,5.3343,5.3337,5.3299,5.3333,5.3319,5.3245,5.3278,5.3237,5.3233,5.3229,5.3226,5.3224,5.326,5.3258,5.3195,5.3195,5.3196,5.3196,0,0,0,0,0,0,0,5.3386,5.3384,5.3379,5.3348,5.3341,5.3316,5.3309,5.333,5.3272,5.3275,5.3267,5.3263,5.3225,5.3224,5.3222,5.3257,5.3194,5.3195,5.3196,5.3197,5.3349,5.3353,0,0,0,0,0,0,5.3395,5.3386,5.338,5.3377,5.3353,5.3318,5.3311,5.3314,5.3271,5.3262,5.3266,5.3258,5.3223,5.3221,5.322,5.3301,5.3196,5.3197,5.3197,5.3346,5.335,5.3354,0,0,0,0,0,0,5.3396,5.3396,5.3382,5.338,5.3376,5.3322,5.3326,5.3315,5.3313,5.3264,5.3254,5.3275,5.3221,5.3219,5.3252,5.3297,5.3197,5.3198,5.3342,5.3347,5.3352,5.3462,0,0,0,0,0,0,5.3397,5.3397,5.3422,5.3381,5.3377,5.3415,5.3329,5.3316,5.3315,5.3305,5.327,5.3261,5.3218,5.3251,5.3254,5.3297,5.3199,5.3338,5.3344,5.335,5.3454,5.347,5.3484,0,0,0,0,0,5.3397,5.3455,5.3424,5.3424,5.3407,5.3417,5.3415,5.3363,5.3319,5.3345,5.3314,5.3262,5.3293,5.3256,5.3257,5.3302,5.3335,5.3343,5.335,5.3447,5.3467,5.3484,0,0,0,0,0,0,5.3504,5.3449,5.3413,5.346,5.3444,5.34,5.343,5.3386,5.3383,5.3373,5.331,5.3303,5.3346,5.3327,5.3287,5.3369,5.3305,5.3314,5.3379,5.3397,5.3412,5.3415,5.32,0,0,0,0,0,5.3533,5.3544,5.3496,5.3542,5.3536,5.3485,5.3487,5.3449,5.3431,5.3424,5.3394,5.3379,5.3385,5.339,5.3393,5.3452,5.3443,5.3483,5.3498,5.3511,5.3518,5.3549,5.3566,5.3379,5.3379,5.3379,0,0,5.3592,5.3564,5.3575,5.3563,5.3546,5.3561,5.348,5.3499,5.3509,5.3426,5.3456,5.3435,5.3414,5.346,5.3479,5.3446,5.3569,5.3521,5.3531,5.3532,5.3558,5.3576,5.3592,5.3384,5.3383,5.3382,0,0,5.3708,5.3688,5.3724,5.3709,5.3685,5.365,5.366,5.3622,5.3605,5.3634,5.3572,5.3585,5.3596,5.3584,5.3579,5.3693,5.3646,5.3696,5.3774,5.3804,5.3819,5.3831,5.3872,5.3887,5.3704,5.3704,5.3704,0,5.3786,5.3804,5.3748,5.3771,5.3768,5.3694,5.3731,5.3719,5.3698,5.3698,5.3661,5.3675,5.3655,5.3698,5.3726,5.3725,5.3733,5.3699,5.3821,5.3833,5.3844,5.3882,5.3898,5.371,5.371,5.3709,5.3709,0,5.3901,5.3915,5.3947,5.3928,5.3928,5.3958,5.3908,5.3916,5.3878,5.3849,5.388,5.3854,5.3851,5.3859,5.3822,5.3897,5.3877,5.3832,5.3767,5.3869,5.3904,5.3918,5.3719,5.3717,5.3715,5.3714,0,0,5.4081,5.4031,5.4044,5.4034,5.4003,5.4013,5.4041,5.4037,5.4045,5.4033,5.4055,5.4067,5.4025,5.402,5.3982,5.4009,5.4101,5.396,5.3959,5.3987,5.4183,5.4216,5.4234,5.4071,5.4073,5.4075,5.4184,0,5.4189,5.4231,5.4183,5.4236,5.4249,5.418,5.4204,5.4188,5.4162,5.417,5.4141,5.4151,5.4095,5.4091,5.4115,5.4085,5.414,5.4077,5.4091,5.4092,5.4097,5.4252,5.4287,5.4392,5.4197,5.42,5.4201,0,5.4321,5.4315,5.4369,5.4335,5.4339,5.4361,5.4354,5.4362,5.4344,5.4323,5.4318,5.4273,5.4299,5.4236,5.4271,5.423,5.4233,5.422,5.4223,5.4221,5.4152,5.4254,5.4423,5.4439,5.4222,5.422,5.4219,0,5.4447,5.4452,5.4485,5.448,5.4441,5.4458,5.4443,5.4421,5.4422,5.4417,5.4418,5.4416,5.4415,5.4416,5.4371,5.433,5.4412,5.4346,5.4396,5.4398,5.4415,5.4415,5.4587,5.4419,5.4419,5.4419,5.4418,0,5.4572,5.4608,5.4541,5.4562,5.4601,5.4545,5.4586,5.4564,5.4545,5.4561,5.4502,5.4518,5.4459,5.447,5.4436,5.4471,5.4471,5.4455,5.4446,5.446,5.4462,5.446,5.4452,5.4423,5.4422,5.4421,5.442,0,5.4718,5.4675,5.4707,5.4668,5.4659,5.4689,5.4656,5.4674,5.4645,5.4666,5.4668,5.4622,5.4631,5.4588,5.459,5.4567,5.4619,5.4598,5.4625,5.4618,5.4671,5.4666,5.4847,5.4868,5.4688,5.469,5.4691,0,5.4801,5.4827,5.4791,5.4797,5.4784,5.4795,5.4796,5.4744,5.4747,5.4729,5.4749,5.4754,5.4755,5.4774,5.4741,5.4743,5.4721,5.4784,5.4721,5.4735,5.4721,5.472,5.4723,5.4797,5.4799,5.4801,5.4803,0,5.4952,5.493,5.4933,5.4929,5.4932,5.4927,5.4918,5.4926,5.487,5.4877,5.4886,5.4887,5.4889,5.4895,5.489,5.4875,5.4831,5.4823,5.4835,5.4849,5.4864,5.4857,5.4661,5.4819,5.4817,5.4816,5.4815,5.4815,5.5069,5.5089,5.5067,5.5073,5.506,5.5053,5.5068,5.5041,5.5047,5.5044,5.5013,5.5028,5.501,5.4999,5.4989,5.5001,5.4971,5.4988,5.4992,5.4997,5.5006,5.4863,5.5,5.5,5.4999,5.4999,5.4998,0,5.5217,5.5199,5.5205,5.5194,5.5199,5.5156,5.5144,5.5152,5.5165,5.5152,5.5154,5.5165,5.517,5.5139,5.5141,5.5156,5.5136,5.5158,5.5156,5.5154,5.5033,5.5023,5.5175,5.5175,5.5175,5.5175,5.5175,5.5175,5.5294,5.5326,5.5302,5.5327,5.531,5.5323,5.532,5.5314,5.5303,5.5318,5.5322,5.5301,5.5281,5.5281,5.5284,5.5275,5.5278,5.5308,5.5292,5.518,5.5162,5.5146,5.5136,5.531,5.531,5.5412,5.5413,5.5414]}]]